This is the latest recevied weather packets stored in our database for station/object S59DKS-10. If no packets are shown the sender has not sent any weather packets the latest 10 day(s).
| Time | Temp. | Humidity | Pressure | Rain* | Wind** | Luminosity | Snow |
|---|---|---|---|---|---|---|---|
| 1777672135 | 12.78° C | 40% | 1028.1 hPa | - | - | - | - |
| 1777671237 | 12.78° C | 36% | 1028.1 hPa | - | - | - | - |
| 1777670339 | 12.78° C | 36% | 1028 hPa | - | - | - | - |
| 1777669440 | 12.78° C | 37% | 1028 hPa | - | - | - | - |
| 1777668541 | 13.33° C | 36% | 1027.9 hPa | - | - | - | - |
| 1777667644 | 13.33° C | 35% | 1027.9 hPa | - | - | - | - |
| 1777666739 | 13.33° C | 35% | 1027.7 hPa | - | - | - | - |
| 1777665840 | 13.33° C | 35% | 1027.7 hPa | - | - | - | - |
| 1777664934 | 13.33° C | 35% | 1027.4 hPa | - | - | - | - |
| 1777664034 | 13.89° C | 35% | 1027.3 hPa | - | - | - | - |
| 1777663135 | 13.89° C | 35% | 1027.3 hPa | - | - | - | - |
| 1777662236 | 13.89° C | 34% | 1027.1 hPa | - | - | - | - |
| 1777661337 | 13.89° C | 34% | 1026.9 hPa | - | - | - | - |
| 1777660437 | 13.89° C | 33% | 1026.6 hPa | - | - | - | - |
| 1777659538 | 14.44° C | 33% | 1026.4 hPa | - | - | - | - |
| 1777658944 | 15° C | 32% | 1026.3 hPa | - | - | - | - |
| 1777658639 | 15° C | 32% | 1026.3 hPa | - | - | - | - |
| 1777657740 | 15.56° C | 32% | 1026.2 hPa | - | - | - | - |
| 1777656842 | 16.11° C | 31% | 1026.1 hPa | - | - | - | - |
| 1777655942 | 16.67° C | 31% | 1026 hPa | - | - | - | - |
| 1777655043 | 17.22° C | 30% | 1026.1 hPa | - | - | - | - |
| 1777654145 | 17.22° C | 30% | 1026 hPa | - | - | - | - |
| 1777653758 | 17.78° C | 30% | 1025.9 hPa | - | - | - | - |
| 1777653246 | 17.78° C | 30% | 1025.9 hPa | - | - | - | - |
| 1777652348 | 18.33° C | 29% | 1026 hPa | - | - | - | - |
* Rain since midnight (hover to see other rain measurements)
** Current wind speed in m/s (hover to see current wind gust speed)